GFSNW_850_temp_192.txt.gz
Temp
1 1 1 1 1 1 1 1 2 1 1 3 4 4 6 4 7 7 9 9 9 9 9 9 9 9 9 9 9 9 8 7 7 10 10 10 10 6 5 6 5 5 7 13
0 1 1 0 0 1 1 0 0 0 1 2 3 4 4 5 6 7 7 7 8 9 8 8 9 9 9 8 9 9 8 7 6 10 11 8 6 5 5 4 4 5 6 10
0 0 0 0 0 0 0 -0 1 -0 0 -0 3 3 4 4 4 5 6 7 7 7 7 8 7 8 8 7 8 6 7 8 7 7 9 10 9 8 8 7 5 6 6 7
0 0 -0 -0 -0 -0 -0 -1 0 -0 1 1 1 2 3 4 4 5 5 6 6 6 6 7 7 7 8 7 7 7 8 5 7 8 9 8 8 8 8 7 6 5 7 8
-0 -1 -1 -1 -1 -0 -1 -2 -0 -1 2 1 2 2 3 2 2 2 3 3 2 3 4 5 5 4 5 6 7 6 7 4 5 4 7 7 7 8 8 8 8 8 8 8
-1 -1 -1 -0 -1 -1 -1 -1 -1 -0 -0 2 3 3 3 1 3 2 3 2 2 2 2 3 2 3 4 5 5 5 5 5 3 4 6 6 4 6 8 8 9 9 7 9
-0 -1 -1 -0 -1 -1 -1 -1 -1 -0 1 2 3 2 2 2 2 2 3 2 3 3 2 2 3 3 4 5 5 5 4 5 4 3 4 2 7 9 9 8 9 9 9 10
-1 -1 -1 -1 -1 -1 -2 -1 -2 -1 0 1 2 1 2 2 2 2 2 2 2 2 2 3 2 4 4 5 6 6 6 4 3 2 3 5 7 8 8 7 8 9 9 10
-1 -1 -1 -1 -1 -1 -2 -2 -2 -2 -1 1 1 1 1 2 3 3 2 1 1 1 3 3 2 2 4 3 5 6 6 5 3 3 2 3 7 9 9 8 5 9 9 9
-1 -1 -1 -1 -1 -1 -2 -2 -2 -2 -2 0 -1 1 2 1 2 2 2 2 2 1 2 1 2 3 5 3 3 3 4 2 2 3 2 4 7 8 7 4 6 9 8 8
-1 -1 -1 -1 -1 -2 -2 -3 -2 -3 -2 -0 -2 -1 -0 0 -0 1 2 1 1 2 1 2 3 3 4 4 5 4 3 2 3 3 2 1 7 7 5 7 7 7 6 6
-1 -1 -1 -2 -2 -2 -2 -3 -3 -3 -3 -1 -2 -2 -2 -1 -0 0 0 1 1 2 1 2 2 2 2 3 2 5 3 4 3 4 4 6 6 6 6 5 6 6 5 5
-1 -1 -1 -2 -2 -2 -2 -2 -3 -3 -3 -3 -3 -2 -2 -1 -1 -2 -2 -0 -0 0 0 1 1 0 3 2 3 3 4 5 3 3 4 5 4 5 5 5 5 4 5 5
-1 -2 -2 -2 -2 -2 -2 -2 -3 -3 -3 -2 0 -1 -1 -0 -0 -2 -2 -1 -1 -1 -1 -1 -0 0 2 2 3 3 3 4 3 3 4 4 4 4 3 3 4 4 4 4
-2 -2 -2 -2 -2 -2 -2 -2 -3 -3 -3 -2 -1 -1 -1 -2 -2 -2 -2 -2 -2 -2 -3 -1 -1 1 0 2 2 2 3 3 3 3 4 3 4 4 3 3 3 4 4 4
-2 -2 -2 -2 -2 -2 -2 -3 -3 -3 -4 -4 -1 -1 -1 -2 -2 -2 -2 -2 -2 -3 -3 -2 -1 -1 -1 -0 2 4 4 4 4 5 4 4 3 3 3 3 3 3 4 4
-2 -2 -2 -2 -2 -3 -3 -2 -3 -3 -4 -4 -2 0 -1 -1 -2 -2 -2 -2 -3 -3 -3 -2 0 1 -1 0 2 4 3 3 3 3 3 3 3 4 4 4 4 3 3 3
-2 -3 -3 -3 -3 -3 -3 -3 -3 -3 -4 -4 -2 -1 -1 -2 0 0 -2 -3 -3 -3 -2 -1 1 1 1 -0 3 3 3 3 3 2 2 2 2 2 3 3 3 4 3 3
-3 -3 -3 -4 -4 -3 -3 -3 -3 -4 -4 -2 -3 -1 -1 -2 -0 -1 -3 -2 -1 -0 -1 0 0 1 0 3 4 3 3 2 1 -1 -0 0 1 2 2 2 3 3 3 3
-3 -4 -4 -3 -4 -3 -3 -4 -4 -4 -4 -4 -3 -2 -1 -1 -1 -1 -1 -2 -0 -1 1 2 -0 1 2 2 2 2 -0 -1 -1 -1 -0 0 0 1 1 2 2 2 2 1
-4 -3 -3 -3 -3 -4 -4 -3 -3 -2 -2 -2 -2 -2 -1 -2 -2 -1 -2 -1 -0 -1 1 -1 0 1 3 0 -1 -1 -1 -2 -1 -1 -2 -3 -3 -3 -2 -0 1 1 -0 0
-3 -3 -3 -4 -4 -4 -3 -2 -1 -1 -0 0 -1 -1 -3 -2 -4 -2 -2 -1 -1 -0 0 0 2 1 0 -0 -1 -1 -2 -2 -2 -3 -3 -3 -3 -3 -3 -2 -1 -0 -0 0
-3 -4 -4 -3 -4 -3 -3 -2 -1 -1 0 -1 -2 -1 -2 -2 -3 -2 -1 -1 0 2 1 2 1 1 0 -1 -2 -2 -2 -2 -3 -4 -4 -3 -2 -1 -1 -2 -2 -1 -1 -0
-3 -3 -3 -2 -3 -2 -0 0 1 -0 -1 -0 -1 -2 -2 -2 -2 -1 -1 1 1 1 1 2 1 -1 -1 -2 -3 -3 -3 -4 -5 -4 -4 -3 -2 -1 -1 -1 -1 -1 -0 -1
-3 -3 -3 -3 -2 -3 -2 -2 -2 -1 -1 -1 -2 -1 -2 -0 -0 -0 0 1 1 1 1 1 -1 -2 -2 -3 -3 -4 -4 -5 -5 -4 -4 -2 -2 -1 -1 -1 -0 0 -1 -2
-3 -4 -3 -2 -3 -1 -3 -3 -2 -1 -1 -2 -1 -1 0 0 1 1 1 1 0 0 -0 -1 -2 -2 -3 -4 -4 -4 -5 -4 -4 -4 -4 -3 -2 -2 -1 -0 -1 -1 -2 -2
-3 -3 -4 -3 -3 -3 -2 -2 -2 -2 -2 -0 1 0 1 1 1 2 1 -0 -1 -2 -2 -2 -3 -3 -4 -4 -4 -4 -4 -4 -5 -4 -4 -3 -2 -2 -2 -2 -1 -2 -2 -2

GFSNW_850_temp_198.txt.gz
Temp
2 2 2 3 3 3 4 4 4 3 4 5 7 6 10 10 11 11 12 11 11 10 11 11 12 13 14 12 13 9 12 10 9 12 14 14 13 12 10 8 8 7 7 10
2 2 2 3 3 3 4 3 3 3 3 4 5 8 9 10 10 10 10 11 11 11 11 10 11 12 14 11 11 11 11 9 7 10 12 14 13 10 9 7 6 7 8 11
2 2 2 2 3 3 3 3 2 3 4 3 5 7 8 9 9 8 8 9 10 10 9 10 10 11 12 12 11 8 9 9 8 7 9 10 10 11 9 8 7 9 8 10
1 2 2 2 2 3 3 2 3 4 3 4 5 6 7 8 8 9 8 8 9 8 8 8 9 10 11 11 10 9 9 7 8 9 9 10 10 10 11 11 10 9 10 11
1 1 2 2 2 2 3 2 3 4 7 6 6 4 6 6 7 7 7 6 6 7 6 6 3 6 6 6 8 7 6 4 5 5 8 9 8 10 10 11 11 12 12 11
1 1 1 1 2 2 3 3 3 5 5 6 6 7 6 7 6 6 7 7 6 6 6 6 6 6 6 6 6 6 6 5 5 4 7 7 5 7 9 9 10 11 9 11
1 1 1 1 1 2 2 3 4 3 4 6 7 7 7 7 7 6 6 6 6 6 5 5 5 6 6 7 7 7 6 6 5 4 5 3 8 10 11 10 10 11 11 10
0 0 0 0 1 1 2 2 2 3 4 6 6 6 6 6 5 5 5 5 5 5 5 4 4 5 6 7 8 8 8 6 4 3 4 5 7 8 9 9 9 8 8 9
0 -0 0 0 0 1 1 1 1 1 2 4 5 5 5 5 6 6 6 6 5 4 4 4 3 3 5 5 7 9 9 8 5 3 2 2 6 9 9 9 6 8 8 9
0 0 0 0 0 0 0 0 1 2 1 3 3 4 4 4 5 5 5 5 5 4 4 2 3 4 6 5 5 4 5 5 4 3 2 4 7 8 8 5 5 6 7 7
-0 -0 -0 -0 -0 -0 -0 -0 0 0 1 2 3 3 3 3 4 4 4 3 4 4 3 3 3 3 5 5 5 5 4 4 4 4 3 2 7 8 6 6 7 7 7 7
-0 -0 0 -0 -0 -0 -0 -1 -1 -1 -1 1 1 1 1 1 2 2 1 2 3 4 3 3 2 2 3 3 2 5 3 4 3 4 4 6 6 7 7 7 7 6 6 6
-0 -0 -0 -0 -1 -1 -1 -1 -1 -2 -2 -0 1 2 2 2 1 1 1 2 3 3 2 1 2 1 3 2 3 3 5 5 3 4 5 6 6 6 6 6 5 5 6 6
-1 -1 -1 -1 -1 -1 -1 -1 -2 -2 -2 -2 2 2 2 2 2 2 1 1 1 2 1 0 1 1 3 3 4 3 4 5 4 4 5 5 5 5 5 5 6 6 6 5
-1 -1 -1 -1 -1 -1 -1 -2 -1 -1 -2 -1 0 1 2 2 2 2 2 2 1 1 0 0 0 2 2 3 3 2 4 3 2 2 4 4 4 5 6 6 5 5 5 6
-1 -1 -1 -1 -1 -1 -2 -1 -2 -2 -2 -2 0 2 2 3 2 2 2 2 2 1 -0 1 1 1 1 -0 2 4 4 5 5 5 5 5 4 3 4 4 4 3 3 3
-2 -2 -1 -1 -1 -2 -2 -2 -2 -2 -3 -2 -1 2 3 2 2 2 2 2 2 2 0 0 1 2 2 1 1 3 3 4 4 4 3 2 2 1 1 1 2 2 1 2
-2 -1 -1 -1 -2 -2 -2 -2 -2 -2 -3 -2 -1 1 2 3 2 2 2 2 1 0 0 1 1 2 2 1 3 4 4 3 2 1 1 -0 -1 -1 -1 -1 -1 -0 -0 1
-2 -2 -2 -2 -2 -2 -2 -2 -2 -3 -2 -1 -1 0 1 1 2 2 1 0 0 1 0 1 1 1 0 3 4 3 2 -0 -1 -1 -2 -2 -1 -1 -1 -2 -2 -2 -1 -0
-2 -2 -2 -2 -2 -2 -2 -3 -3 -3 -2 -2 -1 0 0 1 1 1 1 1 1 1 3 3 0 2 3 3 2 1 -1 -1 -1 -2 -2 -2 -2 -3 -3 -3 -3 -3 -3 -2
-3 -2 -2 -3 -2 -2 -2 -2 -2 -0 -1 -0 0 -0 -0 -1 -1 -0 -0 1 1 0 2 2 2 2 0 1 1 0 -0 -1 -2 -3 -3 -3 -3 -3 -3 -4 -3 -3 -3 -2
-2 -2 -1 -2 -2 -2 -2 -1 0 1 2 1 -0 -1 -1 -1 -2 -1 0 0 1 1 1 1 2 0 2 1 0 -1 -1 -2 -3 -3 -4 -4 -4 -4 -4 -3 -3 -2 -2 -2
-2 -1 -2 -1 -2 -2 -1 -0 1 1 1 0 1 -0 -1 -2 -2 -1 0 0 1 3 1 2 1 2 2 0 -1 -1 -2 -2 -3 -4 -4 -4 -4 -4 -4 -3 -2 -2 -2 -2
-2 -2 -2 -1 -1 -0 2 3 3 2 1 1 1 1 -1 -1 -1 0 0 2 3 2 2 1 2 2 1 -0 -1 -1 -2 -3 -4 -4 -4 -4 -4 -4 -3 -3 -2 -2 -1 -1
-2 -0 -1 -0 1 1 1 1 1 1 2 2 1 1 0 0 -0 1 2 1 2 2 1 1 1 1 0 -0 -1 -2 -3 -4 -4 -4 -4 -4 -4 -4 -3 -3 -2 -2 -2 -2
-2 -0 -0 0 1 0 -1 -1 0 0 1 2 2 0 1 1 1 1 2 2 2 1 1 1 1 0 -1 -1 -2 -3 -3 -4 -5 -5 -5 -5 -4 -4 -4 -4 -3 -3 -3 -4
-2 -0 -0 -0 -0 -0 -0 -0 0 1 1 1 2 1 2 3 2 3 4 2 1 1 0 0 -0 -1 -2 -2 -3 -3 -4 -4 -5 -4 -5 -5 -4 -4 -4 -4 -4 -4 -4 -4

GFSNW_850_temp_201.txt.gz
Temp
0 0 0 -0 1 2 2 4 2 3 3 3 4 3 8 9 10 10 10 10 11 10 10 9 9 10 11 12 11 10 10 6 6 9 11 12 11 9 7 6 5 3 4 7
-0 -0 0 1 1 2 3 3 3 2 3 2 2 6 8 9 9 9 10 9 9 9 9 8 9 9 11 11 10 9 9 6 5 7 9 10 8 8 6 5 3 4 4 7
-0 -0 1 2 2 3 4 3 0 3 3 3 4 5 6 7 9 9 8 8 8 7 7 8 7 8 10 10 9 9 8 6 5 4 7 8 8 9 10 7 5 5 6 6
1 1 2 3 2 3 4 3 2 3 0 1 3 5 6 7 7 8 8 8 7 6 6 6 6 6 6 7 8 8 6 4 6 7 8 8 8 8 9 8 8 6 8 8
1 2 2 2 3 3 4 3 2 4 5 4 3 4 5 5 6 7 6 6 6 6 5 5 3 3 4 5 5 6 4 3 3 4 4 7 6 7 7 7 8 9 9 8
1 2 2 3 3 3 3 4 4 4 4 4 3 2 5 6 6 6 7 6 5 5 4 5 5 5 5 4 4 4 4 3 3 3 6 5 3 5 6 7 8 8 7 8
1 1 2 2 2 3 3 3 4 4 1 3 4 7 6 6 6 5 6 5 5 5 5 5 5 5 5 5 5 5 3 3 3 3 4 2 5 8 8 7 8 8 7 7
1 1 2 2 2 2 2 2 3 3 -0 5 6 5 5 5 5 5 5 5 5 5 5 1 2 1 3 4 5 5 5 2 -1 1 2 4 5 6 6 6 6 6 6 6
1 1 1 1 1 2 2 2 2 2 1 0 4 4 5 2 2 3 5 5 5 4 2 -0 1 -0 3 3 4 6 6 4 3 1 1 1 4 6 7 6 3 6 5 6
1 1 1 1 1 1 1 1 2 2 1 3 3 1 2 4 2 1 4 4 4 4 -2 -3 -1 1 3 2 2 -1 1 -0 -4 -3 -3 2 5 6 6 3 3 5 6 6
0 1 1 0 1 1 1 0 1 1 1 2 2 3 3 3 3 -0 1 1 1 0 -1 -3 -1 -0 1 1 2 2 1 1 -1 -1 -3 -2 4 4 3 3 5 5 6 5
-0 -0 0 0 0 0 0 -0 0 0 1 1 2 2 2 2 2 1 1 1 1 2 -1 -2 -3 -1 -2 0 -1 2 -0 -0 1 1 2 3 4 4 4 5 5 5 5 5
0 0 0 0 0 0 -0 -1 -1 -0 0 1 1 2 2 2 2 2 1 1 2 2 1 -0 -3 -2 -0 -2 -1 0 1 3 -1 1 2 3 4 4 4 4 4 5 5 5
-0 -0 -0 -0 -0 -0 -0 -1 -1 -1 -1 -3 0 2 2 2 2 2 2 2 1 1 1 0 -5 -3 1 -2 -0 -0 1 1 1 1 2 3 3 3 4 4 4 4 4 4
-1 -1 -1 -1 -1 -1 -1 -1 -1 -1 -1 -2 -1 1 3 2 2 2 2 2 1 1 0 -5 -5 -1 -1 -1 -1 -1 2 1 -1 -0 3 3 3 4 3 2 2 3 3 2
-1 -1 -1 -1 -1 -1 -1 -1 -2 -2 -2 -2 -4 1 2 3 2 2 2 2 2 1 0 -1 0 1 -0 -4 -2 2 3 3 3 2 3 1 1 1 1 1 1 1 0 0
-1 -1 -1 -1 -1 -1 -2 -1 -1 -1 -2 -3 -5 -2 2 2 2 2 2 2 2 2 1 -0 -0 0 1 -3 -1 1 2 2 2 2 -0 -0 -1 -1 -1 -1 -1 -1 -1 -1
-1 -1 -1 -1 -1 -2 -2 -2 -2 -2 -3 -2 -7 -4 0 2 2 1 1 1 2 1 0 0 -1 0 0 -2 1 2 3 1 -0 -1 -1 -1 -2 -2 -2 -2 -2 -3 -3 -2
-1 -1 -2 -2 -2 -2 -2 -2 -2 -3 -3 -2 -3 -4 -3 1 1 1 2 1 -4 0 -3 -2 -0 -2 -2 0 2 2 -0 -1 -1 -2 -1 -2 -3 -3 -3 -3 -3 -3 -3 -3
-2 -2 -2 -2 -2 -2 -2 -3 -3 -3 -3 -3 -3 -0 -2 0 -0 -1 -1 0 -1 -2 -1 1 -1 -0 2 1 -0 -0 -0 -1 -1 -3 -3 -3 -3 -4 -4 -4 -4 -4 -4 -3
-2 -2 -2 -2 -2 -2 -2 -2 -3 -2 -3 -1 -1 -0 -2 -1 -2 -2 -1 -3 -2 -2 -0 -0 0 0 -0 1 0 -0 -1 -2 -2 -3 -4 -4 -4 -4 -4 -4 -4 -4 -3 -2
-2 -2 -2 -2 -2 -2 -4 -6 -2 -2 -0 0 -1 -1 -1 -2 -2 -1 -2 -2 -2 -1 -0 -1 0 -1 1 0 -0 -1 -1 -2 -2 -3 -4 -4 -4 -4 -4 -4 -4 -3 -2 -2
-2 -1 -2 -2 -2 -6 -5 -6 -3 -3 1 1 1 -2 -1 -2 -2 -2 -3 -2 -2 2 -2 1 -1 1 1 -0 -0 -1 -1 -2 -3 -3 -4 -5 -5 -4 -4 -4 -4 -3 -2 -2
-2 -2 -6 -6 -6 -3 -1 -1 -1 1 1 1 1 1 -2 -2 -2 -2 -2 -0 0 -1 -2 0 -1 1 0 -0 -1 -1 -2 -2 -3 -4 -5 -5 -5 -5 -4 -4 -4 -4 -3 -3
-2 -1 -5 -4 -1 0 0 0 0 1 1 1 1 -0 0 -2 -1 -1 -1 -1 -1 -1 -0 -1 1 0 -0 -1 -1 -2 -3 -3 -3 -4 -4 -5 -5 -5 -4 -4 -4 -4 -4 -4
-2 -2 -2 -0 -1 -2 -0 -1 -0 0 0 0 1 -2 -3 -3 -0 -1 -0 -0 -2 -1 -1 0 0 -0 -1 -1 -2 -3 -3 -3 -4 -4 -4 -4 -5 -5 -5 -4 -5 -4 -4 -4
-3 -1 -0 -1 -1 -1 -0 -0 -0 -0 -0 -3 -1 -3 -1 -2 -1 1 -2 -2 -2 -1 -1 -1 -0 -1 -1 -2 -3 -3 -3 -3 -4 -4 -4 -4 -4 -5 -5 -4 -5 -5 -5 -4

GFSNW_850_temp_204.txt.gz
Temp
2 3 2 1 2 2 1 1 1 0 1 2 3 3 7 8 8 10 10 10 10 10 9 9 9 10 10 11 11 10 10 6 5 8 9 10 10 9 7 4 4 5 5 7
2 1 1 0 -0 0 1 -0 0 1 1 1 2 5 7 7 8 8 9 8 8 8 8 8 9 9 10 10 10 9 9 5 4 6 8 9 8 8 6 4 2 4 5 6
1 0 0 -0 -0 0 1 1 0 1 1 3 3 4 5 6 8 8 8 8 8 7 7 7 7 7 7 8 8 8 8 5 4 5 6 7 7 8 8 6 4 5 5 6
-0 -0 -0 -0 -0 1 1 1 0 2 1 1 2 5 6 6 7 8 8 7 6 6 5 5 5 4 5 6 6 6 5 3 4 6 6 6 5 6 7 6 6 4 6 7
0 -0 -1 -0 0 1 2 1 2 2 2 3 3 4 4 5 6 6 5 5 5 5 4 4 3 3 3 4 4 4 3 1 2 2 5 5 4 4 3 5 5 6 7 7
-1 -0 -0 -1 0 2 2 3 3 5 3 2 2 2 4 5 6 6 6 5 4 4 4 5 5 5 5 3 3 3 2 1 2 3 4 4 2 4 5 6 6 6 5 5
-1 -1 -1 0 1 2 3 4 4 4 0 2 3 5 6 5 5 4 5 5 4 4 5 5 5 5 4 4 3 3 2 2 1 1 3 0 4 6 6 6 6 7 6 6
0 0 1 2 3 3 4 4 4 4 -2 3 4 5 4 4 5 5 5 5 5 5 4 0 1 0 2 3 3 2 2 1 -2 -1 1 3 4 5 5 4 4 5 5 5
1 1 2 2 2 3 4 4 4 4 -0 0 4 3 4 2 2 2 4 5 4 5 0 -1 0 -1 2 2 3 3 4 2 1 0 0 1 3 4 5 4 2 4 4 4
1 1 2 2 2 2 3 3 3 3 2 2 4 0 1 3 1 -0 1 3 3 4 -3 -4 -2 0 2 1 2 -2 -0 -4 -3 -3 -1 0 3 4 5 2 2 3 4 4
1 1 1 1 2 2 3 1 2 3 2 1 2 3 3 3 2 -1 1 0 1 -2 -2 -3 -2 -1 1 0 1 1 -2 -2 -3 -2 -6 -3 3 3 2 2 3 3 3 4
1 1 1 1 1 2 2 2 2 2 3 1 2 2 2 3 2 2 1 1 0 1 -3 -3 -4 -1 -3 -0 -2 1 -2 -2 -1 -1 -1 2 3 2 3 3 3 3 3 3
0 0 0 0 1 1 1 1 1 2 1 1 2 2 2 2 2 2 1 1 2 1 1 -1 -3 -3 -2 -3 -2 -1 0 1 -2 -1 1 1 2 2 2 3 2 3 3 3
0 0 0 0 0 0 1 1 0 1 0 -3 1 1 2 2 2 2 1 1 1 1 1 -0 -6 -3 -1 -3 -1 -1 -1 0 -0 -1 1 1 2 2 2 1 2 1 2 2
-0 0 0 0 -0 -0 -1 -1 -1 -1 -0 -3 -1 1 2 2 2 1 1 1 1 1 -1 -7 -5 -3 -3 -3 -3 -3 -0 -1 -2 -1 1 1 1 0 0 -0 -0 -0 -0 -0
-0 -0 -0 -0 -1 -1 -1 -2 -2 -1 -1 -1 -6 -0 2 2 2 2 2 2 1 1 0 -2 -1 0 -1 -7 -3 1 2 2 2 1 0 -1 -1 -1 -1 -2 -2 -2 -2 -1
-1 -1 -1 -1 -1 -1 -1 -1 -1 -1 -2 -2 -7 -4 1 1 2 2 2 2 1 1 1 -2 -1 -0 -0 -4 -1 1 1 1 0 -0 -1 -1 -1 -2 -2 -2 -3 -3 -3 -3
-1 -1 -1 -1 -1 -2 -2 -2 -2 -2 -2 -3 -8 -5 -2 1 1 1 1 1 1 1 1 -1 -3 -1 -1 -2 0 1 0 -1 -0 -1 -2 -2 -3 -3 -3 -3 -4 -4 -3 -4
-1 -1 -2 -2 -2 -2 -3 -2 -2 -3 -3 -3 -5 -5 -7 1 0 1 1 1 -3 -0 -4 -3 -2 -3 -2 -0 1 -1 -1 -1 -2 -2 -1 -3 -4 -4 -4 -4 -4 -4 -4 -4
-2 -2 -2 -2 -3 -2 -2 -3 -2 -3 -3 -3 -5 -2 -4 -0 -0 -2 -2 -1 -2 -4 -2 -1 -3 -1 1 1 1 -0 -1 -1 -2 -2 -3 -4 -4 -4 -4 -4 -4 -4 -4 -4
-2 -2 -2 -3 -3 -2 -2 -3 -5 -3 -4 -2 -2 -1 -3 -1 -3 -3 -2 -4 -2 -2 -2 -1 -1 -0 -1 0 -0 -0 -1 -1 -2 -3 -3 -4 -5 -5 -5 -4 -4 -4 -4 -4
-3 -2 -2 -2 -2 -2 -6 -9 -4 -4 -2 -2 -2 -1 -1 -1 -2 -2 -2 -3 -3 -1 -1 -1 -0 -1 0 0 -0 -0 -1 -2 -2 -3 -4 -4 -5 -5 -5 -5 -4 -5 -4 -4
-2 -2 -2 -2 -3 -8 -8 -8 -4 -6 -1 0 0 -4 -1 -2 -2 -2 -3 -3 -3 0 -1 0 -1 -0 0 0 -0 -1 -1 -2 -2 -3 -4 -4 -5 -5 -5 -5 -5 -5 -4 -4
-2 -2 -7 -7 -9 -5 -3 -2 -2 -1 0 0 0 -1 -2 -2 -2 -3 -3 -2 -1 -2 -2 -0 -1 1 0 -0 -1 -1 -2 -3 -3 -4 -4 -4 -5 -5 -5 -5 -5 -5 -4 -4
-3 -3 -6 -7 -2 -1 -1 -0 -0 0 -0 -0 -1 -2 -1 -3 -2 -2 -2 -2 -1 -3 -1 -1 -1 -1 -0 -1 -1 -2 -2 -3 -3 -4 -4 -4 -4 -5 -5 -5 -5 -5 -5 -5
-3 -2 -3 -1 -4 -4 -1 -1 -1 -0 -0 -0 -0 -4 -4 -5 -2 -1 -2 -2 -5 -4 -3 -1 -1 -1 -1 -1 -1 -2 -3 -3 -4 -4 -4 -4 -5 -5 -5 -5 -5 -5 -5 -5
-3 -3 -2 -1 -1 -2 -1 -1 -1 -1 -1 -6 -3 -5 -2 -3 -3 -1 -3 -4 -5 -1 -0 -0 -1 -1 -1 -2 -2 -3 -3 -3 -4 -4 -4 -5 -5 -5 -5 -5 -5 -6 -5 -5

GFSNW_850_temp_210.txt.gz
Temp
6 7 7 8 9 8 7 4 2 3 4 4 3 3 5 6 8 8 8 8 8 9 9 9 9 9 8 8 10 9 7 6 6 7 9 8 9 8 6 4 4 5 3 8
5 6 7 8 9 8 5 1 -0 2 4 3 3 3 4 4 5 7 7 6 7 6 7 8 7 7 7 8 8 8 7 4 3 7 7 7 7 7 4 3 1 5 5 6
5 5 7 7 9 8 6 2 -0 -0 2 0 4 4 4 3 2 4 5 4 5 5 5 5 6 6 5 6 6 7 8 4 6 7 6 5 6 6 6 4 3 4 4 5
4 5 7 7 8 7 6 1 -0 0 1 0 2 4 3 3 3 2 3 2 4 5 5 5 4 4 4 4 5 4 5 4 4 5 4 4 4 4 4 4 4 3 5 4
4 5 7 4 4 4 5 0 0 0 3 1 2 2 2 3 3 3 2 4 5 4 3 5 3 3 4 5 4 3 3 1 2 2 4 4 4 4 4 4 3 3 3 3
3 2 3 3 3 3 2 0 1 3 1 1 2 2 2 3 2 3 5 5 2 3 3 4 5 5 4 3 3 3 3 2 1 2 3 3 1 3 3 3 4 3 2 3
2 1 2 2 2 3 4 2 2 1 1 1 2 2 2 2 2 2 4 4 3 3 5 4 4 4 3 3 3 3 2 2 1 -1 2 -4 3 3 3 3 3 3 3 3
1 1 1 1 1 2 4 2 4 3 1 2 1 1 1 2 3 2 3 4 5 4 5 1 2 1 3 2 2 0 1 0 -3 -5 -2 1 2 2 4 3 3 3 3 3
0 0 0 0 1 0 2 4 4 3 1 1 2 3 3 3 2 2 2 3 4 5 1 1 1 -0 1 1 2 0 -0 -0 -3 -5 -6 -5 2 3 4 2 0 2 1 1
0 0 0 1 1 2 3 4 4 4 0 1 4 1 3 3 2 0 1 2 3 3 -1 -1 -1 0 1 1 1 -3 -1 -5 -6 -6 -6 -1 2 2 3 0 1 1 2 1
1 1 2 2 2 3 3 3 4 5 1 1 3 4 3 2 2 1 1 2 1 -1 -1 -2 -1 -1 0 0 1 0 -2 -4 -5 -6 -10 -4 1 2 1 1 2 1 1 1
2 2 2 2 2 3 4 4 4 4 3 1 2 3 4 4 4 2 0 1 -0 0 -2 -3 -3 -1 -3 -1 -2 -0 -3 -2 -2 -2 -2 1 2 1 2 2 0 0 0 -0
1 1 2 2 2 3 4 4 4 3 2 1 2 2 2 3 3 3 2 0 1 1 1 -4 -4 -2 -2 -4 -3 -1 -1 -1 -3 -1 -0 -0 1 1 1 1 0 -1 -1 -2
1 2 2 2 2 3 4 4 4 4 2 -2 -0 1 2 2 2 2 3 3 1 1 1 -3 -6 -3 -2 -3 -2 -2 -2 -1 -1 -1 -0 -0 1 1 0 -0 -1 -2 -2 -2
1 1 1 2 2 2 3 3 3 3 4 -2 -0 1 1 1 1 2 1 1 1 0 -2 -7 -6 -4 -4 -4 -4 -4 -2 -1 -3 -3 -1 -1 -1 -1 -1 -2 -2 -3 -4 -4
1 1 1 1 2 2 3 3 2 2 3 2 -3 -0 -0 1 1 1 1 1 0 -0 -1 -3 -2 -1 -2 -7 -4 -2 -0 1 1 -0 -0 -2 -2 -1 -2 -3 -3 -4 -4 -4
-0 0 0 1 2 2 1 -1 -0 2 2 2 -6 -4 -0 0 0 -0 -0 -0 0 0 -1 -3 -2 -1 -1 -6 -3 -1 1 1 0 0 -1 -2 -1 -2 -3 -4 -4 -5 -5 -5
-1 -1 -1 -0 0 -0 -1 -1 -0 1 1 -0 -8 -5 -2 -0 0 -0 -0 -1 -1 -1 -1 -3 -4 -3 -2 -3 -2 0 0 0 0 -0 -1 -2 -2 -3 -3 -4 -5 -5 -5 -5
-1 -1 -1 -0 -0 -2 -3 -2 -1 0 -0 -5 -6 -6 -6 -1 -1 -1 -1 -1 -6 -3 -6 -4 -3 -4 -3 -1 -0 -0 0 0 0 -1 -2 -2 -3 -3 -4 -4 -4 -5 -5 -5
-1 -0 -1 -3 -3 -3 -2 -2 -1 -1 -2 -2 -6 -4 -5 -1 -2 -5 -3 -3 -4 -5 -3 -3 -2 -2 -0 1 1 1 0 -0 -1 -2 -2 -2 -3 -3 -4 -4 -5 -5 -5 -6
-1 -2 -3 -3 -3 -3 -3 -4 -5 -4 -6 -3 -3 -2 -4 -2 -5 -5 -2 -6 -4 -3 -3 -3 -3 -4 -3 0 0 0 0 -0 -1 -2 -2 -3 -4 -4 -4 -4 -5 -5 -5 -5
-2 -2 -3 -3 -3 -3 -7 -11 -6 -5 -3 -4 -4 -2 -2 -2 -3 -4 -4 -3 -3 -2 -2 -3 -4 -5 -0 0 -0 0 -0 -1 -1 -2 -2 -3 -3 -3 -4 -4 -5 -5 -5 -5
-2 -2 -3 -3 -5 -8 -9 -9 -6 -7 -4 -2 -2 -6 -2 -3 -3 -3 -2 -3 -3 -2 -2 -2 -4 -1 -0 0 0 -0 -1 -1 -1 -2 -2 -2 -3 -4 -4 -5 -5 -5 -5 -6
-2 -3 -8 -8 -11 -6 -4 -3 -5 -2 -1 -1 -1 -2 -3 -3 -5 -3 -5 -2 -2 -2 -4 -6 -4 -0 0 0 0 -0 -1 -1 -1 -1 -2 -2 -3 -4 -4 -5 -5 -5 -5 -6
-2 -3 -9 -9 -4 -3 -3 -2 -2 -1 -1 -2 -3 -4 -4 -3 -4 -3 -3 -4 -5 -5 -5 -6 0 1 1 1 1 0 -0 -1 -1 -1 -2 -3 -4 -4 -4 -5 -5 -6 -6 -6
-3 -4 -5 -5 -6 -7 -3 -2 -2 -1 -1 -2 -2 -6 -4 -6 -4 -4 -5 -3 -6 -6 -8 1 1 1 1 1 1 0 -0 -1 -1 -2 -3 -3 -4 -4 -5 -5 -5 -6 -6 -6
-5 -5 -4 -3 -4 -3 -1 -1 -1 -1 -2 -7 -4 -6 -4 -4 -4 -2 -4 -6 -6 -2 1 1 0 0 0 0 -0 -0 -1 -1 -2 -2 -3 -4 -4 -5 -5 -5 -5 -6 -6 -7

GFSNW_850_temp_213.txt.gz
Temp
4 5 6 7 7 8 8 5 2 3 5 5 5 6 6 8 8 9 8 10 9 10 10 9 9 9 9 7 10 11 8 9 9 10 8 9 10 9 9 9 8 7 7 11
4 4 5 6 7 8 6 2 1 3 4 4 3 4 5 6 8 8 8 7 8 6 8 7 7 7 7 7 9 9 8 7 7 8 8 8 8 7 6 4 4 7 7 9
3 4 7 5 7 7 6 3 1 1 3 2 5 5 5 4 3 6 6 6 5 4 4 5 6 6 5 5 7 7 8 6 9 9 9 8 7 7 7 6 5 7 7 7
3 4 4 4 6 7 6 2 0 2 3 1 4 6 4 5 3 3 4 3 3 4 4 4 4 4 4 5 5 5 7 7 6 5 6 6 6 6 6 5 6 4 7 7
3 3 4 4 6 7 5 1 0 1 4 2 4 4 3 4 2 3 3 3 3 4 3 5 3 4 5 6 4 4 4 4 4 4 5 5 5 5 5 5 5 6 6 5
3 4 4 5 4 5 3 1 2 4 3 2 3 3 3 4 2 1 2 3 2 2 2 3 4 5 4 5 5 4 4 4 4 3 4 4 3 4 5 5 5 5 4 5
3 3 3 4 4 5 5 3 3 2 1 2 3 3 2 3 3 2 2 2 3 2 3 3 4 3 3 3 3 3 4 4 3 2 3 2 4 4 4 4 5 5 5 5
2 3 3 3 3 4 5 4 4 2 1 2 1 1 1 1 1 2 2 0 3 3 4 3 3 2 3 2 1 2 3 3 1 1 2 3 4 4 4 4 5 5 4 3
2 2 3 2 2 3 4 2 4 2 1 1 1 1 1 1 0 0 -0 1 3 4 2 3 2 2 3 2 2 1 1 2 2 -0 -0 0 3 4 3 3 2 2 2 3
1 1 1 1 1 1 2 1 1 1 -1 0 1 1 1 1 2 1 1 2 3 4 1 1 1 2 3 2 1 0 0 -1 -0 -0 0 1 3 2 3 2 3 2 1 1
0 1 1 1 0 0 0 0 2 3 -1 -1 1 2 2 2 2 1 1 2 2 1 1 1 1 1 2 2 3 1 1 -0 -1 -3 -3 -0 1 2 3 3 2 1 1 0
-0 1 2 1 2 3 3 3 3 3 2 -1 2 3 4 5 5 2 0 1 1 1 0 -0 -0 0 0 1 1 1 1 1 1 1 2 2 2 2 2 1 0 0 -0 -1
2 2 3 3 3 3 5 4 3 3 1 1 2 1 2 4 4 4 2 1 1 1 1 -1 -1 1 0 -0 0 1 1 -0 1 2 2 2 1 2 1 1 -0 -1 -2 -2
2 2 3 3 3 4 5 4 4 4 2 -1 -1 1 2 2 3 4 4 3 2 1 1 -2 -1 1 -1 0 1 1 1 0 1 1 2 1 1 1 0 -1 -2 -2 -3 -3
2 2 2 2 3 4 5 4 4 4 4 -2 -1 0 0 1 2 2 3 3 2 1 -1 -2 -1 -2 -1 -2 -1 -1 -0 1 0 1 1 1 1 -0 -2 -3 -3 -3 -4 -4
1 2 2 2 3 4 4 3 2 2 2 2 -2 -1 -1 0 1 1 1 1 1 0 -0 -3 -3 -2 -1 -1 -1 0 -0 1 1 1 0 -0 -1 -2 -2 -3 -3 -4 -5 -5
1 2 2 2 3 4 2 -1 1 3 3 1 -3 -2 -1 -1 0 -1 -0 0 0 0 -2 -2 -1 -1 -2 -2 -1 0 1 1 1 1 -0 -2 -2 -2 -2 -3 -3 -3 -4 -5
0 1 1 2 2 1 1 1 2 3 3 2 -5 -3 -1 -1 -1 -2 -1 -1 -1 -2 -3 -3 -2 -3 -2 -1 -0 -0 1 1 0 0 -1 -1 -1 -2 -2 -3 -4 -4 -5 -5
-0 0 1 2 2 -1 -2 0 1 2 2 -4 -5 -2 -2 -1 -2 -2 -2 -2 -2 -3 -2 -2 -2 -2 -2 0 0 -0 -0 0 0 -1 -1 -1 -1 -2 -3 -3 -4 -4 -4 -5
0 1 1 -2 -3 -2 -1 1 1 1 -1 -1 -4 -4 -2 -2 -3 -4 -3 -3 -2 -2 -1 -3 -2 -0 0 0 1 1 1 0 -0 -1 -1 -1 -2 -2 -2 -3 -4 -4 -4 -5
-0 -1 -3 -3 -2 -2 -2 -4 -5 -4 -4 -3 -4 -3 -2 -2 -2 -2 -3 -3 -2 -2 -1 -1 -1 -1 -1 0 -0 1 1 1 0 -0 -1 -1 -2 -2 -2 -3 -4 -4 -5 -5
-2 -1 -2 -2 -2 -3 -6 -9 -5 -3 -2 -4 -3 -3 -3 -3 -3 -3 -3 -3 -2 -2 -2 -2 -1 -1 -0 0 1 -0 0 0 0 -0 -1 -2 -2 -2 -3 -4 -4 -4 -5 -5
-1 -1 -3 -3 -6 -6 -6 -8 -4 -4 -4 -4 -4 -4 -4 -3 -3 -3 -2 -2 -2 -2 -2 -1 -0 -1 -0 0 0 0 0 -0 -0 -1 -1 -2 -2 -2 -3 -4 -4 -4 -5 -5
-2 -3 -7 -7 -8 -5 -3 -2 -3 -3 -3 -2 -2 -5 -3 -3 -3 -2 -3 -1 -1 -2 -2 -2 -1 -0 1 0 0 0 0 -0 -1 -1 -1 -2 -2 -2 -3 -3 -4 -5 -5 -5
-3 -3 -7 -7 -5 -5 -4 -3 -2 -2 -2 -2 -3 -4 -3 -2 -2 -2 -2 -3 -2 -2 -2 -2 -1 0 0 0 0 1 1 1 -0 -1 -1 -2 -2 -2 -3 -4 -4 -5 -5 -5
-3 -4 -5 -6 -5 -7 -4 -3 -2 -2 -2 -2 -2 -4 -3 -3 -3 -3 -3 -2 -3 -2 -3 -1 1 1 1 1 1 1 1 0 -0 -1 -1 -2 -2 -3 -3 -4 -4 -5 -5 -6
-5 -6 -5 -4 -4 -3 -2 -2 -1 -2 -2 -3 -3 -4 -3 -3 -3 -2 -2 -2 -2 -3 -0 1 1 0 -0 -1 -1 -1 -1 -1 -1 -2 -2 -2 -3 -3 -4 -5 -5 -5 -6 -6

GFSNW_850_temp_216.txt.gz
Temp
4 4 4 4 6 6 7 6 4 5 6 5 6 6 8 10 12 11 12 15 16 15 15 15 15 15 14 11 14 13 15 15 13 14 13 13 16 15 15 12 10 12 12 14
3 4 4 4 5 7 6 5 2 4 5 4 4 7 9 9 11 12 12 13 13 10 13 10 12 11 8 10 12 14 13 14 12 12 12 12 13 12 13 8 8 11 11 13
3 3 3 5 4 5 6 4 2 2 3 6 7 6 7 6 7 11 11 10 11 9 10 11 10 10 7 7 10 8 11 13 14 14 14 14 12 12 12 11 9 11 12 12
3 4 4 4 4 5 6 3 1 3 3 3 7 8 6 6 5 7 8 5 7 7 5 5 5 8 6 7 6 8 11 11 11 10 11 11 12 11 11 10 10 9 11 11
3 3 3 3 4 5 5 1 1 1 6 4 5 6 5 7 4 5 6 8 6 8 5 7 5 6 6 6 7 9 9 6 7 6 7 8 8 9 10 9 9 10 10 9
3 3 4 3 4 4 4 2 3 6 5 3 5 5 6 7 5 2 7 7 3 3 3 5 5 5 5 6 8 7 6 5 5 5 7 7 6 8 9 8 9 9 8 9
3 3 4 4 4 4 5 4 3 3 3 4 5 6 6 5 5 3 3 4 3 2 1 2 2 2 3 4 5 7 6 7 7 6 6 5 8 8 9 8 8 8 8 8
3 3 3 3 4 4 4 5 5 3 3 4 4 4 3 3 2 1 2 1 1 0 3 2 2 2 4 4 5 6 8 6 4 4 6 8 6 6 6 6 7 8 7 7
3 2 2 2 4 4 4 4 5 4 2 2 2 1 2 2 1 1 -1 1 0 3 6 5 4 4 6 5 4 5 5 7 6 4 4 5 7 7 6 6 5 5 5 5
2 3 2 2 3 3 4 4 5 5 0 0 1 1 2 -0 1 1 -0 -0 0 3 4 4 5 5 7 5 4 2 4 3 4 4 4 6 7 6 5 4 5 5 4 4
2 2 3 3 3 4 4 2 3 4 -1 -2 -0 -0 -0 -0 1 2 -0 1 1 3 3 4 4 5 5 6 6 4 3 3 3 4 3 3 5 5 5 6 4 4 3 3
2 2 2 2 3 3 3 2 2 2 -0 -2 -1 -0 -0 1 3 1 1 3 4 3 4 4 4 4 4 6 4 5 4 6 5 5 6 6 5 6 4 3 3 3 2 2
0 1 2 2 2 2 3 2 0 1 -2 -2 -2 -2 0 2 3 3 2 3 1 1 2 3 3 4 5 4 5 5 5 5 4 4 5 5 4 4 3 3 2 2 1 1
-0 1 1 1 2 2 2 0 1 1 0 -1 -1 0 1 2 3 4 4 4 3 2 1 2 3 4 4 5 5 6 5 4 5 5 5 5 4 3 3 2 1 0 0 -0
1 2 2 2 2 2 3 3 3 3 2 -0 -1 1 1 3 4 4 4 4 2 2 2 2 3 3 3 3 4 5 4 5 4 4 5 4 4 3 1 0 0 -0 -1 -1
1 2 2 3 4 4 4 2 1 2 1 2 -0 -2 -2 0 2 2 2 1 2 0 1 1 2 1 3 2 4 5 4 4 4 5 4 3 2 1 -0 -0 -1 -2 -2 -2
2 2 3 4 4 5 4 1 1 3 3 1 1 1 -1 -0 -0 -0 0 0 0 1 0 2 3 2 1 2 3 5 3 3 3 3 2 1 1 1 -0 -1 -2 -3 -2 -2
2 3 3 4 4 3 2 2 3 3 3 1 1 0 1 -1 1 1 -1 0 1 0 1 1 3 1 2 1 4 3 3 3 2 2 1 1 1 -1 -1 -2 -2 -3 -2 -2
1 1 2 2 2 0 -1 2 3 3 2 0 1 2 1 -1 -0 0 -0 0 1 -1 2 3 2 3 1 3 4 3 3 2 1 2 1 1 -0 0 -1 -2 -2 -2 -2 -3
2 3 2 -1 -1 0 2 2 2 2 -0 -0 1 0 1 1 1 0 1 0 2 1 2 1 1 2 3 3 3 3 2 2 1 0 0 0 0 -0 -1 -1 -3 -3 -4 -4
2 -1 -2 -1 0 -0 -0 -2 -0 1 1 1 0 2 2 -1 2 1 1 1 2 1 2 1 2 2 3 2 2 2 2 2 1 1 1 1 -1 -1 -2 -2 -3 -4 -4 -4
-0 -0 -1 -1 -1 -1 -1 -2 -1 2 1 0 2 -0 -1 -3 -1 1 -1 0 0 1 1 0 2 3 3 2 1 1 1 1 1 1 -0 -1 -1 -1 -2 -2 -2 -4 -4 -3
0 -0 -2 0 -2 -1 0 -1 -0 0 0 -1 -3 -2 -2 -2 -2 -1 -0 -0 1 2 1 2 3 3 2 2 1 1 1 1 0 -0 -1 -1 -1 -1 -1 -2 -3 -3 -3 -3
-1 -1 -2 -1 -1 -0 1 2 1 -2 -0 0 -1 -2 -1 -1 -1 0 0 1 2 1 1 1 4 3 2 1 1 1 0 0 0 -0 -1 -1 -1 -1 -1 -2 -2 -3 -3 -4
-2 -0 -1 -1 -2 -2 -2 -2 -1 -1 -0 -0 -2 -2 -1 -1 -1 0 1 -1 0 1 2 3 3 2 2 1 0 1 0 -0 -0 0 -0 -1 -1 -1 -2 -2 -3 -3 -3 -4
-3 -2 -2 -2 -0 -2 -2 -1 -0 -1 -1 -0 0 -1 -1 -1 0 -0 0 1 1 2 2 2 2 2 1 1 0 -0 -0 -0 -0 -0 -1 -2 -2 -2 -2 -2 -3 -3 -3 -4
-2 -3 -4 -2 -1 -0 -1 -1 -1 -1 0 0 1 -1 -0 0 0 1 2 1 2 2 1 1 1 1 0 -0 -0 -0 -1 -1 -1 -2 -2 -2 -2 -3 -3 -4 -4 -5 -5 -5

GFSNW_850_temp_219.txt.gz
Temp
3 3 4 4 4 5 4 6 5 5 6 6 4 6 10 12 14 14 14 15 18 19 19 19 19 19 19 19 19 17 18 17 16 16 19 19 19 18 18 15 14 15 16 17
3 3 3 4 4 4 3 6 3 5 6 4 4 8 10 12 13 13 11 13 16 18 17 17 19 19 14 16 17 16 17 15 14 14 16 16 16 18 18 17 13 14 14 16
4 3 3 3 4 4 4 3 2 2 5 6 8 8 9 9 11 12 12 12 11 13 15 17 17 16 11 12 15 10 15 15 14 15 17 17 15 16 17 17 12 14 16 16
3 3 3 3 3 4 3 2 1 3 3 4 8 10 10 9 7 11 13 10 10 11 9 13 13 15 10 10 8 12 14 11 14 15 16 15 17 16 16 15 14 13 14 16
3 3 3 3 4 4 3 0 1 2 7 6 7 8 8 10 9 9 11 11 10 12 8 10 7 13 10 10 11 12 11 9 12 12 13 13 14 15 15 15 15 14 14 14
3 3 4 3 4 3 3 2 3 6 7 6 6 8 10 10 10 9 12 11 9 8 6 6 6 8 8 8 9 9 9 7 8 9 10 11 9 11 13 13 13 13 12 13
3 3 3 3 3 2 3 3 5 4 4 6 6 9 10 9 9 7 7 9 5 3 3 3 2 2 4 5 8 9 8 8 8 7 8 6 12 12 13 13 13 13 13 12
3 3 3 3 3 2 2 4 5 3 4 6 6 8 8 7 6 3 4 3 3 2 2 2 3 3 3 3 5 7 8 7 6 6 7 11 10 9 10 11 12 12 11 11
3 3 3 3 3 3 2 3 4 7 3 4 7 6 6 2 2 1 0 1 1 2 1 3 5 5 7 5 5 8 8 8 8 5 6 7 11 11 10 10 8 11 10 9
3 3 2 2 3 3 3 3 4 7 1 2 3 3 4 2 1 2 0 0 0 0 3 4 5 5 9 6 6 5 6 5 6 6 7 9 11 9 8 6 8 8 7 7
3 3 3 2 2 4 3 4 5 5 -0 -1 1 1 0 0 2 3 -0 1 1 2 4 4 4 6 7 7 8 6 6 6 5 6 5 5 10 8 7 8 7 6 6 6
3 3 3 3 3 3 3 3 4 5 4 -2 -1 -1 0 1 2 1 0 2 3 2 3 4 5 6 7 8 6 8 6 7 8 8 8 9 9 8 7 6 6 6 5 5
3 3 3 3 3 3 3 3 3 5 -1 -2 -1 -2 -0 0 1 2 1 0 1 2 4 6 5 4 8 6 8 7 8 9 7 7 8 8 7 7 6 5 5 5 4 4
1 1 2 2 2 3 3 3 2 3 0 0 -2 -2 -1 -0 -0 0 1 2 3 3 3 4 5 6 7 8 9 8 8 8 7 7 8 7 7 6 6 5 4 3 3 3
-0 1 2 2 1 2 2 1 0 1 3 2 -1 -0 -0 -0 1 0 1 2 3 3 4 4 5 6 6 8 7 8 8 7 6 6 7 7 7 6 5 3 3 3 2 2
-1 -1 -0 0 0 1 0 -1 -0 1 2 2 0 -1 -1 0 1 2 3 4 3 2 3 4 5 4 6 5 6 9 8 7 7 8 7 6 6 5 3 3 2 2 1 1
-2 -1 -1 0 1 2 2 1 1 2 3 1 0 -0 -1 1 2 2 3 3 3 3 3 4 6 5 4 5 5 8 7 7 6 6 6 5 4 4 3 2 2 1 0 0
2 3 3 3 3 2 2 2 2 3 4 3 1 1 2 1 2 2 3 2 3 3 4 4 5 4 4 4 6 6 6 5 5 5 5 3 4 4 3 2 1 1 1 1
2 3 3 2 2 2 1 3 3 3 3 2 3 2 1 1 3 2 2 3 3 2 3 5 5 4 3 5 6 6 5 5 5 5 4 4 3 3 2 2 1 1 1 1
3 3 3 1 -0 1 3 3 2 2 3 3 4 4 2 2 3 3 3 3 3 2 4 4 3 4 5 5 5 5 5 4 4 3 4 3 2 2 2 2 1 0 -1 -1
2 1 1 -0 2 2 2 0 2 3 3 4 4 4 4 3 3 3 3 3 3 3 4 3 3 4 5 5 5 4 4 4 4 3 3 3 2 1 1 1 1 -0 -1 -1
1 2 1 1 2 2 1 1 2 4 3 4 4 3 2 1 2 2 2 2 3 3 4 2 3 5 5 5 5 4 4 4 3 3 3 2 2 1 0 -0 -1 -1 -1 -2
2 2 0 2 1 1 2 0 2 2 2 1 1 -0 -0 -1 0 1 1 1 2 4 2 3 5 6 5 5 4 4 4 3 3 3 2 2 1 0 -1 -1 -1 -2 -2 -3
1 1 -1 1 1 3 4 5 4 2 2 2 0 -0 1 -0 1 2 1 3 4 2 2 3 5 5 5 4 4 3 3 3 2 2 2 1 0 -0 -1 -1 -1 -1 -2 -2
0 2 0 0 2 0 1 1 2 3 2 1 0 -0 1 0 -0 2 2 1 2 3 4 4 5 5 4 3 3 3 3 2 1 0 0 0 -0 -1 -1 -1 -2 -2 -2 -2
0 1 1 2 0 -0 1 2 2 3 3 3 2 2 0 0 2 1 2 3 3 4 4 4 4 4 4 3 2 2 1 0 -0 -0 -1 -1 -1 -1 -2 -2 -2 -2 -3 -3
1 -0 1 2 1 1 0 1 2 2 3 2 3 1 2 3 2 3 4 3 4 4 3 3 3 3 2 2 0 -0 -0 -1 -1 -1 -1 -3 -3 -4 -4 -4 -4 -5 -5 -5

GFSNW_850_temp_222.txt.gz
Temp
3 3 3 3 3 4 3 2 5 6 6 5 5 5 9 12 13 14 13 15 17 19 20 19 20 19 20 21 21 19 21 19 18 19 20 20 20 19 18 15 16 16 17 17
3 3 3 3 3 4 2 3 4 5 6 4 4 7 8 12 13 13 13 14 16 17 18 18 19 19 17 20 21 20 19 17 15 17 18 18 18 19 19 18 14 15 14 16
3 3 3 3 3 4 2 1 2 4 6 6 6 7 7 8 10 12 12 13 13 13 14 15 17 13 14 16 18 13 14 17 16 16 17 17 16 17 18 18 14 15 15 17
3 3 3 3 3 4 2 2 1 3 5 4 5 8 9 8 9 11 12 12 12 12 12 12 13 13 11 12 9 13 14 13 16 17 18 17 15 17 17 17 17 14 16 16
2 3 3 3 3 3 2 0 0 2 6 5 5 7 8 9 9 11 11 12 12 12 10 12 11 9 11 11 11 12 11 9 11 12 15 16 13 15 17 17 18 18 17 16
2 3 3 3 3 3 3 2 3 4 6 5 6 6 9 9 11 11 12 13 10 9 8 6 6 7 7 9 8 8 7 7 8 9 12 13 10 12 14 17 18 17 15 16
3 3 3 3 3 3 4 3 4 4 5 6 6 9 9 10 10 10 11 9 9 5 6 5 5 3 4 6 6 7 5 6 7 8 7 8 13 14 15 15 16 16 16 15
3 3 3 3 3 3 3 3 4 4 4 7 7 8 8 9 10 6 6 5 6 5 4 2 3 3 4 3 4 6 6 5 7 7 7 11 13 11 12 13 13 15 15 15
3 3 3 3 3 3 3 3 4 5 5 5 8 7 9 7 5 1 1 3 4 4 2 3 5 5 6 5 5 6 7 6 8 6 7 8 12 14 13 13 10 14 14 12
3 3 3 3 3 2 2 3 3 4 2 2 7 6 6 3 3 2 0 2 1 1 3 5 6 6 8 6 6 5 5 5 6 6 7 9 12 12 11 8 10 12 12 10
3 3 3 3 2 1 2 2 2 3 1 0 3 4 2 2 3 2 -0 1 0 1 4 5 4 5 6 7 8 6 6 5 6 5 6 6 11 9 8 9 9 8 8 7
3 3 3 3 2 2 2 2 2 2 3 -1 0 2 3 4 4 2 0 2 2 2 4 3 3 4 5 7 6 8 5 6 6 7 8 9 10 9 8 8 8 7 7 7
3 3 3 3 3 2 2 2 3 2 -1 -1 -0 -0 1 2 2 3 1 -0 0 1 2 3 2 3 7 5 5 7 8 9 7 8 9 10 10 9 7 7 6 6 6 5
2 2 2 2 2 2 2 3 2 2 -1 1 -1 -1 -0 0 1 1 2 2 1 2 2 2 3 3 6 5 7 7 8 8 8 8 9 9 9 8 7 6 6 5 5 4
2 2 2 2 2 2 2 2 1 3 1 1 -0 -1 -0 -0 0 0 0 1 1 1 1 2 2 5 6 7 8 8 9 8 6 6 8 8 8 7 7 6 5 4 4 4
1 2 2 2 2 1 1 1 -0 0 3 1 0 -1 -0 -0 0 0 0 0 1 1 2 3 5 4 6 5 6 9 9 9 8 8 8 8 8 7 6 5 5 4 3 3
-1 -1 -1 -1 -0 0 -0 -0 -0 -0 2 1 1 0 -1 -0 0 0 0 1 2 3 4 4 5 5 5 5 6 9 9 9 8 8 8 7 7 6 5 4 4 3 2 2
-2 -1 -1 -1 -1 -1 -1 -1 -0 1 1 1 1 0 -0 0 1 2 3 3 3 4 4 5 5 4 5 4 7 8 8 7 7 7 7 6 6 5 5 4 3 2 2 2
-0 -0 -0 0 -1 -2 -1 1 2 2 1 1 2 1 0 1 2 3 3 4 3 3 4 5 5 4 3 5 6 7 7 6 6 6 6 5 5 5 4 3 3 2 2 2
2 2 2 2 2 2 2 2 1 3 4 4 4 4 2 2 3 3 3 4 3 2 4 5 4 4 6 6 6 6 6 6 5 5 5 5 4 4 4 3 3 2 2 1
2 3 2 2 3 4 3 1 3 4 4 5 4 4 4 4 3 3 4 3 4 4 4 4 4 4 5 6 6 6 5 5 5 5 4 4 4 3 3 3 3 2 1 1
2 3 3 3 4 3 2 2 4 5 4 5 4 4 3 2 3 3 3 3 4 3 5 3 3 5 6 6 6 6 5 5 5 4 4 4 3 2 2 2 2 2 1 1
3 2 2 3 2 2 3 1 4 3 4 3 2 1 1 1 1 2 2 2 3 5 3 3 5 6 6 6 6 6 5 5 4 4 4 3 2 2 2 1 1 0 0 -0
2 1 0 2 2 4 4 6 4 3 3 2 1 1 1 0 2 3 2 4 5 3 3 4 6 6 6 6 5 5 5 4 4 3 3 3 2 1 1 0 0 0 -0 -1
2 2 1 1 2 2 3 3 4 3 2 1 1 1 2 2 1 3 3 2 2 3 4 4 5 6 5 5 4 4 4 3 3 2 2 2 1 1 0 -0 -1 -1 -1 -2
1 2 2 2 1 1 2 3 3 3 2 2 3 2 1 1 2 2 2 3 3 4 4 4 5 5 5 4 4 3 3 2 1 1 1 1 0 -0 -0 -1 -1 -2 -3 -3
2 1 2 2 2 1 2 3 3 3 3 3 4 1 2 3 3 3 4 4 4 4 4 4 4 4 3 3 2 1 1 1 0 0 -0 -1 -1 -2 -4 -4 -4 -5 -5 -5